When you browse on this site, cookies collect data to enhance your experience and personalize the content and advertising you see.
Visit our Privacy Policy to learn more. By continuing to use the site, you agree to this use of cookies and data.
  • In Portugal
  • List of Countries
  • For 7 days
  • Water Temperature
  • Weather Map
  • Weather Widgets
  • user-avatar
    Login

    Hourly Weather Derechino

    Today, 19 September, Thursday

    Time Temperature Precipitation Wind Pressure Humidity
    00:00 +6°C° 0 mm 5 mps 744 mmHg 91%
    01:00 +6°C° 0 mm 5 mps 744 mmHg 91%
    02:00 +6°C° 0 mm 4 mps 744 mmHg 92%
    03:00 +6°C° 0 mm 4 mps 745 mmHg 91%
    04:00 +6°C° 0 mm 5 mps 745 mmHg 89%
    05:00 +7°C° 0 mm 5 mps 745 mmHg 88%
    06:00 +7°C° 0 mm 5 mps 746 mmHg 88%
    07:00 +6°C° 0 mm 5 mps 746 mmHg 88%
    08:00 +6°C° 0 mm 5 mps 746 mmHg 87%
    09:00 +7°C° 0.1 mm 5 mps 746 mmHg 86%
    10:00 +7°C° 0.1 mm 5 mps 747 mmHg 84%
    11:00 +8°C° 0.1 mm 5 mps 747 mmHg 82%
    12:00 +10°C° 0 mm 4 mps 747 mmHg 78%
    13:00 +10°C° 0 mm 4 mps 747 mmHg 74%
    14:00 +11°C° 0 mm 4 mps 747 mmHg 70%
    15:00 +11°C° 0 mm 3 mps 747 mmHg 69%
    16:00 +11°C° 0 mm 3 mps 747 mmHg 68%
    17:00 +12°C° 0 mm 2 mps 747 mmHg 68%
    18:00 +10°C° 0 mm 2 mps 747 mmHg 73%
    19:00 +9°C° 0 mm 2 mps 747 mmHg 78%
    20:00 +7°C° 0 mm 2 mps 747 mmHg 83%
    21:00 +7°C° 0 mm 2 mps 747 mmHg 85%
    22:00 +7°C° 0 mm 3 mps 747 mmHg 87%
    23:00 +5°C° 0 mm 3 mps 747 mmHg 88%

    Tomorrow, 20 September, Friday

    Time Temperature Precipitation Wind Pressure Humidity
    00:00 +5°C° 0 mm 3 mps 747 mmHg 90%
    01:00 +5°C° 0 mm 3 mps 747 mmHg 92%
    02:00 +4°C° 0 mm 4 mps 747 mmHg 94%
    03:00 +5°C° 0 mm 4 mps 747 mmHg 92%
    04:00 +5°C° 0 mm 5 mps 747 mmHg 90%
    05:00 +5°C° 0 mm 5 mps 747 mmHg 88%
    06:00 +4°C° 0 mm 6 mps 748 mmHg 85%
    07:00 +5°C° 0 mm 6 mps 748 mmHg 82%
    08:00 +5°C° 0 mm 6 mps 748 mmHg 78%
    09:00 +5°C° 0 mm 6 mps 748 mmHg 74%
    10:00 +7°C° 0 mm 6 mps 749 mmHg 71%
    11:00 +7°C° 0 mm 6 mps 749 mmHg 67%
    12:00 +8°C° 0 mm 6 mps 749 mmHg 62%
    13:00 +9°C° 0 mm 6 mps 749 mmHg 58%
    14:00 +10°C° 0 mm 6 mps 749 mmHg 54%
    15:00 +9°C° 0.1 mm 5 mps 749 mmHg 55%
    16:00 +9°C° 0.1 mm 5 mps 749 mmHg 57%
    17:00 +8°C° 0.1 mm 4 mps 749 mmHg 59%
    18:00 +7°C° 0 mm 4 mps 750 mmHg 62%
    19:00 +7°C° 0 mm 3 mps 750 mmHg 66%
    20:00 +4°C° 0 mm 3 mps 750 mmHg 69%
    21:00 +5°C° 0 mm 2 mps 751 mmHg 73%
    22:00 +4°C° 0 mm 2 mps 751 mmHg 77%
    23:00 +4°C° 0 mm 2 mps 751 mmHg 80%

    Day after tomorrow, 21 September, Saturday

    Time Temperature Precipitation Wind Pressure Humidity
    00:00 +4°C° 0 mm 2 mps 751 mmHg 81%
    01:00 +4°C° 0 mm 2 mps 751 mmHg 82%
    02:00 +3°C° 0 mm 2 mps 751 mmHg 83%
    03:00 +4°C° 0 mm 2 mps 751 mmHg 81%
    04:00 +3°C° 0 mm 3 mps 750 mmHg 80%
    05:00 +3°C° 0 mm 3 mps 750 mmHg 78%
    06:00 +4°C° 0 mm 3 mps 750 mmHg 76%
    07:00 +5°C° 0 mm 4 mps 749 mmHg 74%
    08:00 +6°C° 0 mm 5 mps 749 mmHg 71%
    09:00 +6°C° 0.7 mm 5 mps 749 mmHg 78%
    10:00 +5°C° 0.7 mm 6 mps 748 mmHg 85%
    11:00 +5°C° 0.7 mm 6 mps 748 mmHg 92%
    12:00 +7°C° 0.4 mm 6 mps 748 mmHg 92%
    13:00 +8°C° 0.4 mm 7 mps 747 mmHg 92%
    14:00 +9°C° 0.4 mm 7 mps 747 mmHg 92%
    15:00 +10°C° 0.1 mm 7 mps 747 mmHg 91%
    16:00 +10°C° 0.1 mm 6 mps 747 mmHg 90%
    17:00 +11°C° 0.1 mm 6 mps 747 mmHg 89%
    18:00 +11°C° 0 mm 6 mps 747 mmHg 90%
    19:00 +10°C° 0 mm 6 mps 747 mmHg 91%
    20:00 +10°C° 0 mm 6 mps 747 mmHg 92%
    21:00 +10°C° 0 mm 5 mps 747 mmHg 92%
    22:00 +10°C° 0 mm 5 mps 747 mmHg 93%
    23:00 +9°C° 0 mm 5 mps 747 mmHg 93%

    22 September, Sunday

    Time Temperature Precipitation Wind Pressure Humidity
    00:00 +9°C° 0 mm 5 mps 747 mmHg 94%
    01:00 +9°C° 0 mm 5 mps 747 mmHg 94%
    02:00 +8°C° 0 mm 5 mps 747 mmHg 95%
    03:00 +9°C° 0 mm 5 mps 747 mmHg 94%
    04:00 +9°C° 0 mm 5 mps 747 mmHg 94%
    05:00 +9°C° 0 mm 5 mps 747 mmHg 93%
    06:00 +9°C° 0 mm 5 mps 747 mmHg 92%
    07:00 +9°C° 0 mm 5 mps 747 mmHg 91%
    08:00 +9°C° 0 mm 5 mps 747 mmHg 89%
    09:00 +12°C° 0 mm 5 mps 747 mmHg 84%
    10:00 +13°C° 0 mm 5 mps 747 mmHg 78%
    11:00 +15°C° 0 mm 5 mps 747 mmHg 73%
    12:00 +16°C° 0 mm 5 mps 747 mmHg 70%
    13:00 +16°C° 0 mm 5 mps 747 mmHg 67%
    14:00 +17°C° 0 mm 5 mps 747 mmHg 64%
    15:00 +16°C° 0 mm 5 mps 747 mmHg 68%
    16:00 +15°C° 0 mm 4 mps 747 mmHg 71%
    17:00 +14°C° 0 mm 3 mps 747 mmHg 74%
    18:00 +12°C° 0 mm 3 mps 748 mmHg 76%
    19:00 +11°C° 0 mm 3 mps 748 mmHg 78%
    20:00 +9°C° 0 mm 2 mps 748 mmHg 79%
    21:00 +8°C° 0 mm 2 mps 749 mmHg 76%
    22:00 +8°C° 0 mm 2 mps 749 mmHg 72%
    23:00 +7°C° 0 mm 2 mps 749 mmHg 68%

    23 September, Monday

    Time Temperature Precipitation Wind Pressure Humidity
    00:00 +5°C° 0 mm 3 mps 749 mmHg 70%
    01:00 +5°C° 0 mm 3 mps 749 mmHg 72%
    02:00 +5°C° 0 mm 3 mps 749 mmHg 74%
    03:00 +4°C° 0 mm 3 mps 749 mmHg 74%
    04:00 +4°C° 0 mm 3 mps 748 mmHg 75%
    05:00 +4°C° 0 mm 3 mps 748 mmHg 76%
    06:00 +5°C° 0 mm 4 mps 748 mmHg 74%
    07:00 +6°C° 0 mm 4 mps 747 mmHg 73%
    08:00 +7°C° 0 mm 4 mps 747 mmHg 71%
    09:00 +8°C° 0 mm 5 mps 747 mmHg 70%
    10:00 +10°C° 0 mm 5 mps 746 mmHg 69%
    11:00 +13°C° 0 mm 5 mps 746 mmHg 67%
    12:00 +14°C° 0 mm 5 mps 745 mmHg 66%
    13:00 +15°C° 0 mm 5 mps 744 mmHg 65%
    14:00 +16°C° 0 mm 5 mps 744 mmHg 64%
    15:00 +17°C° 0 mm 4 mps 743 mmHg 67%
    16:00 +15°C° 0 mm 4 mps 742 mmHg 70%
    17:00 +16°C° 0 mm 3 mps 742 mmHg 73%
    18:00 +14°C° 0.1 mm 3 mps 741 mmHg 77%
    19:00 +13°C° 0.1 mm 3 mps 741 mmHg 81%
    20:00 +13°C° 0.1 mm 2 mps 741 mmHg 84%
    21:00 +13°C° 0 mm 2 mps 740 mmHg 85%
    22:00 +13°C° 0 mm 2 mps 740 mmHg 86%
    23:00 +12°C° 0 mm 2 mps 739 mmHg 87%

    24 September, Tuesday

    Time Temperature Precipitation Wind Pressure Humidity
    00:00 +12°C° 0 mm 2 mps 739 mmHg 87%
    01:00 +12°C° 0 mm 1 mps 739 mmHg 88%
    02:00 +12°C° 0 mm 1 mps 739 mmHg 88%
    03:00 +11°C° 0 mm 1 mps 738 mmHg 90%
    04:00 +11°C° 0 mm 1 mps 738 mmHg 91%
    05:00 +10°C° 0 mm 0 mps 738 mmHg 92%
    06:00 +11°C° 0 mm 0 mps 738 mmHg 91%
    07:00 +11°C° 0 mm 0 mps 738 mmHg 90%
    08:00 +12°C° 0 mm 0 mps 738 mmHg 89%
    09:00 +14°C° 0 mm 1 mps 738 mmHg 84%
    10:00 +15°C° 0 mm 1 mps 738 mmHg 80%
    11:00 +16°C° 0 mm 1 mps 739 mmHg 75%
    12:00 +16°C° 0 mm 1 mps 739 mmHg 74%
    13:00 +16°C° 0 mm 1 mps 739 mmHg 73%
    14:00 +16°C° 0 mm 2 mps 739 mmHg 72%
    15:00 +16°C° 0 mm 2 mps 739 mmHg 74%
    16:00 +16°C° 0 mm 2 mps 739 mmHg 75%
    17:00 +16°C° 0 mm 2 mps 739 mmHg 76%
    18:00 +15°C° 0 mm 2 mps 739 mmHg 78%
    19:00 +15°C° 0 mm 2 mps 740 mmHg 79%
    20:00 +14°C° 0 mm 1 mps 740 mmHg 80%
    21:00 +14°C° 0 mm 1 mps 740 mmHg 81%
    22:00 +14°C° 0 mm 1 mps 740 mmHg 81%
    23:00 +12°C° 0 mm 0 mps 741 mmHg 82%
    Show more